Date String (YYYY-MM-DD hh:mm:ss) UTC,Instrument flags,Ambient pressure (hPa),Sample flow (lpm),Bypass flow (lpm),Sample temperature (°C),Ambient temperature (°C),ASC tube jacket temperature (°C),LED temperature (°C),Box temperature (°C),Sample RH (%),Span deviation,Mass concentration (μg/m³),Mass concentration (μg/m³),Mass concentration (μg/m³)
DateTimeUTC,F1_M11,P_M11,Q1_M11,Q2_M11,T1_M11,T2_M11,T3_M11,T4_M11,T5_M11,U1_M11,ZSPAN_M11,X0_M11,X2_M11,X1_M11
2022-07-12 01:00:00,,0832.0,5.00,0.00,29.6,28.1,00.0,38.3,31.6,31.8,0000.0,0020.66,0009.40,0008.06
2022-07-12 01:01:00,,0832.0,5.00,0.00,29.6,28.3,00.0,38.4,31.6,31.7,0000.0,0020.25,0009.45,0008.08
2022-07-12 01:02:00,,0831.9,5.01,0.00,29.7,28.5,00.0,38.4,31.7,31.7,0000.0,0022.08,0009.48,0008.10
2022-07-12 01:03:00,,0831.9,5.00,0.00,29.7,28.6,00.0,38.4,31.7,31.6,0000.0,0022.69,0009.51,0008.12
2022-07-12 01:04:00,,0832.0,5.01,0.00,29.8,28.7,00.0,38.4,31.8,31.5,0000.0,0024.10,0009.59,0008.15
2022-07-12 01:05:00,,0832.0,5.00,0.00,29.8,28.8,00.0,38.4,31.8,31.5,0000.0,0024.22,0009.60,0008.18
2022-07-12 01:06:00,,0831.9,4.99,0.00,29.8,28.3,00.0,38.4,31.7,31.4,0000.0,0024.29,0009.64,0008.21
2022-07-12 01:07:00,,0831.8,5.00,0.00,29.8,27.5,00.0,38.4,31.6,31.5,0000.0,0025.00,0009.65,0008.22
2022-07-12 01:08:00,,0831.8,5.00,0.00,29.7,27.2,00.0,38.4,31.4,31.6,0000.0,0026.26,0009.68,0008.23
2022-07-12 01:09:00,,0831.8,5.00,0.00,29.6,27.2,00.0,38.3,31.4,31.7,0000.0,0026.41,0009.67,0008.24
2022-07-12 01:10:00,,0831.8,5.01,0.00,29.6,27.4,00.0,38.3,31.3,31.8,0000.0,0026.24,0009.69,0008.26
2022-07-12 01:11:00,,0831.9,5.00,0.00,29.5,27.5,00.0,38.3,31.4,31.9,0000.0,0027.07,0009.70,0008.27
2022-07-12 01:12:00,,0831.9,4.99,0.00,29.6,27.7,00.0,38.3,31.4,31.8,0000.0,0027.58,0009.67,0008.27
2022-07-12 01:13:00,,0831.9,5.00,0.00,29.6,27.9,00.0,38.3,31.5,31.8,0000.0,0025.57,0009.66,0008.26
2022-07-12 01:14:00,,0832.0,5.00,0.00,29.6,28.1,00.0,38.3,31.5,31.8,0000.0,0025.24,0009.62,0008.27
2022-07-12 01:15:00,,0831.9,5.00,0.00,29.6,28.3,00.0,38.4,31.6,31.7,0000.0,0025.05,0009.56,0008.27
2022-07-12 01:16:00,,0831.9,5.00,0.00,29.7,28.5,00.0,38.4,31.7,31.6,0000.0,0024.82,0009.55,0008.28
2022-07-12 01:17:00,,0831.9,5.00,0.00,29.7,28.6,00.0,38.4,31.7,31.6,0000.0,0024.98,0009.55,0008.27
2022-07-12 01:18:00,,0831.8,5.00,0.00,29.7,28.7,00.0,38.4,31.7,31.5,0000.0,0024.23,0009.58,0008.27
2022-07-12 01:19:00,,0831.8,5.01,0.00,29.8,28.8,00.0,38.4,31.8,31.4,0000.0,0024.27,0009.57,0008.27
2022-07-12 01:20:00,,0831.8,4.99,0.00,29.8,28.6,00.0,38.4,31.8,31.4,0000.0,0024.14,0009.56,0008.28
2022-07-12 01:21:00,,0831.8,5.00,0.00,29.8,27.8,00.0,38.4,31.6,31.5,0000.0,0023.86,0009.59,0008.28
2022-07-12 01:22:00,,0831.7,5.00,0.00,29.7,27.3,00.0,38.4,31.5,31.6,0000.0,0023.60,0009.61,0008.27
2022-07-12 01:23:00,,0831.7,4.99,0.00,29.6,27.3,00.0,38.4,31.4,31.9,0000.0,0022.93,0009.61,0008.24
2022-07-12 01:24:00,,0831.8,5.00,0.00,29.6,27.3,00.0,38.3,31.3,32.1,0000.0,0022.86,0009.62,0008.21
2022-07-12 01:25:00,,0831.8,4.99,0.00,29.5,27.5,00.0,38.3,31.4,32.1,0000.0,0022.63,0009.60,0008.18
2022-07-12 01:26:00,,0831.8,5.02,0.00,29.5,27.7,00.0,38.3,31.4,32.3,0000.0,0021.41,0009.56,0008.15
2022-07-12 01:27:00,,0831.8,5.00,0.00,29.6,27.9,00.0,38.3,31.4,32.1,0000.0,0020.70,0009.53,0008.12
2022-07-12 01:28:00,,0831.7,5.00,0.00,29.6,28.1,00.0,38.3,31.5,32.2,0000.0,0019.79,0009.51,0008.10
2022-07-12 01:29:00,,0831.7,5.00,0.00,29.6,28.2,00.0,38.3,31.5,32.1,0000.0,0019.57,0009.45,0008.08
2022-07-12 01:30:00,,0831.7,5.00,0.00,29.6,28.4,00.0,38.4,31.6,32.4,0000.0,0018.21,0009.43,0008.07
2022-07-12 01:31:00,,0831.7,5.01,0.00,29.7,28.5,00.0,38.4,31.7,32.0,0000.0,0017.59,0009.37,0008.05
2022-07-12 01:32:00,,0831.8,5.00,0.00,29.7,28.7,00.0,38.4,31.7,31.7,0000.0,0017.58,0009.34,0008.04
2022-07-12 01:33:00,,0831.7,4.99,0.00,29.8,28.8,00.0,38.4,31.8,31.6,0000.0,0018.17,0009.32,0008.06
2022-07-12 01:34:00,,0831.7,4.99,0.00,29.8,28.8,00.0,38.4,31.8,31.6,0000.0,0018.98,0009.39,0008.09
2022-07-12 01:35:00,,0831.7,4.99,0.00,29.8,28.1,00.0,38.4,31.7,31.6,0000.0,0018.82,0009.37,0008.11
2022-07-12 01:36:00,,0831.7,5.00,0.00,29.7,27.4,00.0,38.4,31.5,31.6,0000.0,0018.97,0009.38,0008.13
2022-07-12 01:37:00,,0831.7,5.01,0.00,29.7,27.2,00.0,38.3,31.4,31.7,0000.0,0019.46,0009.43,0008.14
2022-07-12 01:38:00,,0831.7,5.00,0.00,29.6,27.2,00.0,38.3,31.3,31.9,0000.0,0019.16,0009.48,0008.16
2022-07-12 01:39:00,,0831.8,4.99,0.00,29.6,27.4,00.0,38.3,31.3,32.1,0000.0,0020.14,0009.50,0008.20
2022-07-12 01:40:00,,0831.7,5.01,0.00,29.5,27.6,00.0,38.3,31.3,32.6,0000.0,0020.07,0009.55,0008.22
2022-07-12 01:41:00,,0831.7,4.99,0.00,29.5,27.8,00.0,38.3,31.4,33.0,0000.0,0020.18,0009.55,0008.24
2022-07-12 01:42:00,,0831.7,5.00,0.00,29.6,28.0,00.0,38.3,31.5,32.7,0000.0,0020.54,0009.62,0008.25
2022-07-12 01:43:00,,0831.7,5.01,0.00,29.6,28.1,00.0,38.3,31.5,32.6,0000.0,0021.05,0009.70,0008.27
2022-07-12 01:44:00,,0831.7,5.01,0.00,29.6,28.3,00.0,38.4,31.6,32.2,0000.0,0021.00,0009.77,0008.27
2022-07-12 01:45:00,,0831.6,5.00,0.00,29.7,28.5,00.0,38.4,31.6,31.8,0000.0,0020.18,0009.73,0008.28
2022-07-12 01:46:00,,0831.6,5.00,0.00,29.7,28.6,00.0,38.4,31.7,31.8,0000.0,0020.83,0009.75,0008.30
2022-07-12 01:47:00,,0831.6,4.99,0.00,29.7,28.7,00.0,38.4,31.8,31.9,0000.0,0022.20,0009.77,0008.31
2022-07-12 01:48:00,,0831.6,4.99,0.00,29.8,28.8,00.0,38.4,31.8,31.5,0000.0,0022.14,0009.82,0008.35
2022-07-12 01:49:00,,0831.5,5.01,0.00,29.8,28.4,00.0,38.4,31.7,31.4,0000.0,0022.81,0009.85,0008.39
2022-07-12 01:50:00,,0831.6,4.99,0.00,29.8,27.6,00.0,38.4,31.6,31.6,0000.0,0022.06,0009.88,0008.39
2022-07-12 01:51:00,,0831.6,5.01,0.00,29.7,27.2,00.0,38.3,31.5,31.7,0000.0,0021.54,0009.88,0008.40
2022-07-12 01:52:00,,0831.6,5.00,0.00,29.6,27.2,00.0,38.3,31.3,31.8,0000.0,0021.67,0009.95,0008.41
2022-07-12 01:53:00,,0831.6,4.99,0.00,29.5,27.3,00.0,38.3,31.3,31.9,0000.0,0021.65,0010.00,0008.42
2022-07-12 01:54:00,,0831.6,5.00,0.00,29.5,27.4,00.0,38.3,31.3,32.0,0000.0,0020.73,0009.91,0008.42
2022-07-12 01:55:00,,0831.6,5.01,0.00,29.5,27.6,00.0,38.3,31.4,31.9,0000.0,0020.95,0009.88,0008.42
2022-07-12 01:56:00,,0831.6,5.00,0.00,29.5,27.8,00.0,38.3,31.4,31.8,0000.0,0021.53,0009.84,0008.42
2022-07-12 01:57:00,,0831.7,5.00,0.00,29.6,28.0,00.0,38.3,31.5,31.8,0000.0,0022.07,0009.83,0008.42
2022-07-12 01:58:00,,0831.7,5.00,0.00,29.6,28.2,00.0,38.3,31.5,31.8,0000.0,0020.65,0009.82,0008.45
2022-07-12 01:59:00,,0831.7,5.00,0.00,29.6,28.4,00.0,38.3,31.6,31.9,0000.0,0021.27,0009.77,0008.44
